Regional Weather Roundup
Issued by NWS Sioux Falls, SD

Home | Current Version | Previous Version | Graphics & Text | Print | Product List | Glossary Off
Versions: 1 2 3 4 5 6 7 8 9 10 11 12 13 14 15 16 17 18 19 20 21 22 23 24 25 26 27 28 29 30 31 32 33 34 35 36 37 38 39 40 41 42 43 44 45 46 47 48 49 50

000
ASUS43 KFSD 251110
RWRFSD

WEATHER ROUNDUP FOR SE SOUTH DAKOTA/SW MINNESOTA/NW IOWA
NATIONAL WEATHER SERVICE SIOUX FALLS SD
600 AM CDT MON MAY 25 2015

NOTE: "FAIR" INDICATES FEW OR NO CLOUDS BELOW 12,000 FEET WITH NO
SIGNIFICANT WEATHER AND OR OBSTRUCTIONS TO VISIBILITY.


SDZ038>040-050-052>070-251200-
SOUTHEAST SOUTH DAKOTA

CITY           SKY/WX    TMP DP  RH WIND       PRES   REMARKS
BROOKINGS      CLOUDY    57  55  94 N7        29.72F
CHAMBERLAIN    CLOUDY    56  56 100 CALM      29.75S
HURON          CLOUDY    57  56  96 N5        29.73F FOG
MADISON        CLOUDY    55  55 100 N6        29.72S FOG
MITCHELL       FOG       58  58 100 NW3       29.74R VSB 3/4
SIOUX FALLS    CLOUDY    59  57  93 NW3       29.72S
WINNER         FOG       58  56  93 E5        29.76S VSB 1/4
YANKTON        MOCLDY    59  57  94 W5        29.74R
$$

MNZ071-072-080-081-089-090-097-098-251200-
SOUTHWEST MINNESOTA

CITY           SKY/WX    TMP DP  RH WIND       PRES   REMARKS
FAIRMONT       CLOUDY    61  55  82 W10       29.70R
JACKSON        CLOUDY    59  59 100 W8        29.71S FOG
LUVERNE        CLOUDY    59  55  88 NW5       29.72S FOG
MARSHALL       CLOUDY    57  54  88 NW8       29.70S
MONTEVIDEO     LGT RAIN  57  57 100 N3        29.70S
REDWOOD FALLS  FOG       58  57  97 W6        29.67F VSB 3/4
TRACY          CLOUDY    58  57  99 NW6       29.70F FOG
WINDOM         CLOUDY    57  55  94 W7        29.70F FOG
WORTHINGTON    CLOUDY    57  54  88 NW8       29.71F
$$

IAZ001>003-012>014-020>022-031-032-NEZ013-014-SDZ071-251200-
NORTHWEST IOWA

CITY           SKY/WX    TMP DP  RH WIND       PRES   REMARKS
CHEROKEE       CLOUDY    59  59 100 W5        29.74R FOG
DENISON        CLOUDY    61  61 100 SW6       29.73S
ESTHERVILLE    CLOUDY    60  58  92 W10       29.71R
LE MARS        CLOUDY    61  61 100 SW6       29.75R FOG
ORANGE CITY    FOG       57  57 100 W7        29.73R VSB 1/4
SHELDON        CLOUDY    59  59 100 W7        29.71R FOG
SIOUX CITY     FOG       59  57  93 W3        29.75R VSB 3/4
SPENCER        CLOUDY    61  60  97 W9        29.72R FOG
STORM LAKE     CLOUDY    61  61 100 W8        29.74S FOG
$$

ABBREVIATIONS USED IN REMARKS
   TC - TEMPERATURE IN CELSIUS
  WCI - WIND CHILL INDEX
   HX - HEAT INDEX
  VSB - VISIBILITY



USA.gov is the U.S. government's official web portal to all federal, state and local government web resources and services.